This is the latest recevied weather packets stored in our database for station/object W0WC. If no packets are shown the sender has not sent any weather packets the latest 10 day(s).
| Time | Temp. | Humidity | Pressure | Rain* | Wind** | Luminosity | Snow |
|---|---|---|---|---|---|---|---|
| 1778078207 | 11.11° C | 69% | 1017.5 hPa | 0 mm | - | 473 W/m² | - |
| 1778077905 | 10.56° C | 69% | 1017.9 hPa | 0 mm | - | 457 W/m² | - |
| 1778077603 | 10.56° C | 70% | 1017.8 hPa | 0 mm | - | 434 W/m² | - |
| 1778077300 | 10.56° C | 71% | 1017.5 hPa | 0 mm | - | 361 W/m² | - |
| 1778076998 | 10° C | 72% | 1017.8 hPa | 0 mm | - | 161 W/m² | - |
| 1778076696 | 10° C | 74% | 1018.1 hPa | 0 mm | - | 189 W/m² | - |
| 1778076393 | 10° C | 75% | 1018.2 hPa | 0 mm | - | 367 W/m² | - |
| 1778076091 | 9.44° C | 76% | 1018.3 hPa | 0 mm | - | 216 W/m² | - |
| 1778075787 | 9.44° C | 76% | 1018.3 hPa | 0 mm | - | 193 W/m² | - |
| 1778075483 | 8.89° C | 77% | 1018.2 hPa | 0 mm | - | 189 W/m² | - |
| 1778075180 | 8.89° C | 76% | 1018.4 hPa | 0 mm | - | 143 W/m² | - |
| 1778074876 | 8.89° C | 77% | 1018.2 hPa | 0 mm | - | 141 W/m² | - |
| 1778074574 | 8.89° C | 78% | 1018.2 hPa | 0 mm | - | 107 W/m² | - |
| 1778074270 | 8.89° C | 79% | 1018.1 hPa | 0 mm | - | 114 W/m² | - |
| 1778073968 | 8.33° C | 79% | 1018.1 hPa | 0 mm | - | 104 W/m² | - |
| 1778073665 | 8.33° C | 80% | 1018 hPa | 0 mm | - | 81 W/m² | - |
| 1778073362 | 8.33° C | 81% | 1017.9 hPa | 0 mm | - | 69 W/m² | - |
| 1778073058 | 8.33° C | 81% | 1017.9 hPa | 0 mm | - | 63 W/m² | - |
| 1778072755 | 8.33° C | 81% | 1018 hPa | 0 mm | - | 58 W/m² | - |
| 1778072453 | 8.33° C | 81% | 1017.9 hPa | 0 mm | - | 46 W/m² | - |
| 1778072151 | 8.33° C | 82% | 1017.8 hPa | 0 mm | - | 46 W/m² | - |
| 1778071848 | 8.33° C | 83% | 1018.1 hPa | 0 mm | - | 57 W/m² | - |
| 1778071546 | 7.78° C | 83% | 1017.5 hPa | 0 mm | - | 83 W/m² | - |
| 1778071244 | 7.78° C | 84% | 1017.8 hPa | 0 mm | - | 49 W/m² | - |
| 1778070941 | 7.78° C | 85% | 1017.8 hPa | 0 mm | - | 45 W/m² | - |
* Rain latest hour (hover to see other rain measurements)
** Current wind speed in m/s (hover to see current wind gust speed)